St. Joseph, KS

8:48 PM CST on November 16, 2019 (GMT -0600)
Rosecrans Memorial

Weather History for KSTJ - October, 2019

Change the Weather History Date:

Sunday, October 20, 2019

  Actual Average Record
Temperature  
Mean Temperature 53 °F 53 °F  
Max Temperature 67 °F 65 °F 90 °F (2003)
Min Temperature 38 °F 41 °F 22 °F (1989)
Degree Days  
Heating Degree Days 12 12  
Month to date heating degree days 192 182  
Since 1 July heating degree days 197 262  
Cooling Degree Days 0 0  
Month to date cooling degree days 17 18  
Year to date cooling degree days 1466 1217  
Growing Degree Days 2 (Base 50)    
Moisture  
Dew Point 47 °F    
Average Humidity 72    
Maximum Humidity 100    
Minimum Humidity 43    
Precipitation  
Precipitation 0.69 in 0.09 in 2.91 in (1949)
Month to date precipitation 3.14 1.86  
Year to date precipitation 36.74 31.58  
Sea Level Pressure  
Sea Level Pressure 29.73 in    
Wind  
Wind Speed 8 mph (South)    
Max Wind Speed 25 mph    
Max Gust Speed 37 mph    
Visibility 4 miles    
Events Fog , Thunderstorm    
T = Trace of Precipitation, MM = Missing Value Source: NWS Daily Summary

Daily Weather History Graph

Daily Weather History Graph

Search for Another Location

Airport or City:

Astronomy

Oct. 20, 2019 Rise Set
Actual Time 7:34 AM CDT 6:33 PM CDT
Civil Twilight 7:07 AM CDT 7:00 PM CDT
Nautical Twilight 6:36 AM CDT 7:32 PM CDT
Astronomical Twilight 6:04 AM CDT 8:03 PM CDT
Moon 11:43 PM CDT (10/20) 2:03 PM CDT (10/20)
Length of Visible Light 11h 53m
Length of Day
10h 58m
Waning Gibbous, 59% of the Moon is Illuminated
Oct 20
Waning Gibbous
Oct 21
Last Quarter
Oct 27
New
Nov 4
First Quarter
Nov 12
Full

Hourly Weather History & Observations

Time (CDT) Temp. Dew Point Humidity Pressure Visibility Wind Dir Wind Speed Gust Speed Precip Events Conditions
12:36 AM 44.1 °F 42.1 °F 93% 29.84 in 1.0 mi Calm Calm - N/A   Mist
12:53 AM 43.0 °F 42.1 °F 97% 29.83 in 2.5 mi Calm Calm - N/A   Scattered Clouds
1:08 AM 43.0 °F 41.0 °F 93% 29.83 in 1.2 mi Calm Calm - N/A   Clear
1:27 AM 43.0 °F 41.0 °F 93% 29.83 in 0.5 mi Calm Calm - N/A Fog Fog
1:53 AM 43.0 °F 42.1 °F 97% 29.83 in 0.2 mi Calm Calm - N/A Fog Fog
2:30 AM 42.1 °F 41.0 °F 96% 29.83 in 1.0 mi Calm Calm - N/A   Mist
2:34 AM 42.1 °F 41.0 °F 96% 29.83 in 2.0 mi Calm Calm - N/A   Clear
2:44 AM 43.0 °F 41.0 °F 93% 29.83 in 1.0 mi Calm Calm - N/A   Clear
2:53 AM 43.0 °F 39.9 °F 89% 29.83 in 0.5 mi Calm Calm - N/A Fog Fog
3:53 AM 42.1 °F 39.9 °F 92% 29.82 in 0.2 mi Calm Calm - N/A Fog Fog
4:53 AM 39.9 °F 37.9 °F 93% 29.82 in 0.2 mi Calm Calm - N/A Fog Fog
5:53 AM 39.9 °F 37.9 °F 93% 29.83 in 0.2 mi Calm Calm - N/A Fog Fog
6:04 AM 39.9 °F 39.0 °F 97% 29.83 in 1.0 mi Calm Calm - N/A   Mist
6:12 AM 39.0 °F 37.9 °F 96% 29.83 in 0.5 mi Calm Calm - N/A Fog Fog
6:53 AM 39.9 °F 39.0 °F 97% 29.84 in 0.2 mi Calm Calm - N/A Fog Fog
7:53 AM 41.0 °F 39.0 °F 93% 29.83 in 0.2 mi Calm Calm - N/A Fog Fog
8:44 AM 48.9 °F 48.0 °F 97% 29.84 in 0.5 mi Calm Calm - N/A Fog Fog
8:53 AM 50.0 °F 48.9 °F 96% 29.84 in 1.5 mi SSE 3.5 mph - N/A   Clear
8:56 AM 51.1 °F 48.9 °F 92% 29.84 in 3.0 mi SSE 4.6 mph - N/A   Clear
9:53 AM 54.0 °F 51.1 °F 90% 29.85 in 10.0 mi SSE 9.2 mph - N/A   Clear
10:53 AM 59.0 °F 50.0 °F 72% 29.85 in 10.0 mi SSE 8.1 mph 18.4 mph N/A   Clear
11:53 AM 63.0 °F 48.0 °F 58% 29.81 in 10.0 mi SE 17.3 mph 28.8 mph N/A   Clear
12:53 PM 64.0 °F 46.0 °F 52% 29.77 in 10.0 mi SE 15.0 mph 28.8 mph N/A   Clear
1:53 PM 64.0 °F 41.0 °F 43% 29.75 in 10.0 mi SSE 18.4 mph 35.7 mph N/A   Clear
3:53 PM 64.0 °F 46.0 °F 52% 29.68 in 10.0 mi SE 13.8 mph 28.8 mph N/A   Clear
4:53 PM 63.0 °F 46.9 °F 56% 29.66 in 10.0 mi ESE 10.4 mph - N/A   Partly Cloudy
5:53 PM 62.1 °F 46.9 °F 58% 29.68 in 10.0 mi ESE 11.5 mph - N/A   Overcast
6:53 PM 60.1 °F 48.0 °F 64% 29.70 in 10.0 mi ESE 8.1 mph - N/A   Overcast
7:53 PM 59.0 °F 50.0 °F 72% 29.66 in 10.0 mi ESE 6.9 mph - N/A   Partly Cloudy
8:53 PM 59.0 °F 51.1 °F 75% 29.62 in 10.0 mi ESE 12.7 mph - N/A   Partly Cloudy
9:53 PM 59.0 °F 52.0 °F 78% 29.55 in 10.0 mi ESE 12.7 mph 25.3 mph N/A   Scattered Clouds
10:00 PM 59.0 °F 52.0 °F 78% 29.54 in 10.0 mi ESE 18.4 mph 26.5 mph N/A Thunderstorm Mostly Cloudy
10:19 PM 59.0 °F 53.1 °F 81% 29.59 in 10.0 mi West 16.1 mph 36.8 mph N/A Thunderstorm Thunderstorm
10:30 PM 57.9 °F 54.0 °F 87% 29.59 in 0.8 mi SW 8.1 mph 23.0 mph 0.27 in Thunderstorm Overcast
10:38 PM 57.0 °F 54.0 °F 89% 29.59 in 1.2 mi West 8.1 mph - 0.32 in Thunderstorm Overcast
10:46 PM 57.0 °F 55.0 °F 93% 29.60 in 2.5 mi SSW 8.1 mph - 0.37 in Thunderstorm Overcast
10:53 PM 57.0 °F 55.0 °F 93% 29.59 in 2.5 mi South 10.4 mph - 0.42 in Thunderstorm Overcast
11:00 PM 57.0 °F 55.0 °F 93% 29.59 in 6.0 mi SSW 11.5 mph - 0.01 in Thunderstorm Overcast
11:08 PM 57.0 °F 55.0 °F 93% 29.60 in 10.0 mi SW 8.1 mph - 0.01 in Thunderstorm Overcast
11:20 PM 57.0 °F 55.0 °F 93% 29.60 in 2.5 mi WSW 11.5 mph - 0.08 in Thunderstorm Overcast
11:33 PM 57.0 °F 55.0 °F 93% 29.61 in 4.0 mi WSW 5.8 mph - 0.10 in Thunderstorm Overcast
11:49 PM 57.2 °F 55.4 °F 94% 29.62 in 4.0 mi WSW 5.8 mph - 0.13 in   Overcast
11:53 PM 57.0 °F 55.0 °F 93% 29.61 in 2.5 mi West 9.2 mph - 0.16 in   Overcast